Lapse_Rate
6.1 6.4 6.6 6.5 6.5 6.8 6.9 6.9 6.7 7.1 7.2 7.3 7.1 7.3 7.2 7.3 6.9 7.4 8.6 7.0 8.0 7.7 7.9 8.2 8.2 7.5 7.5 7.3 6.5 7.0 6.8 7.0 6.6 6.5 6.5 6.5 6.5 6.5 6.5 6.5 6.5 6.5 6.5 6.5 6.5 6.5 6.5 6.8 6.7 6.5 6.6 7.1 7.1 7.2
6.3 6.7 6.7 6.6 6.8 6.8 7.0 7.0 7.0 7.2 7.2 7.3 7.2 7.2 7.3 7.3 7.4 6.9 7.8 7.5 7.4 7.7 7.9 8.0 8.3 8.9 8.6 8.4 7.7 7.6 6.9 6.9 6.8 6.5 6.5 6.5 6.5 6.5 6.5 6.5 6.5 6.5 6.5 6.5 6.5 6.5 6.6 7.2 6.9 7.4 7.5 7.2 7.3 7.3
6.5 6.8 6.7 6.9 7.0 7.1 7.2 7.1 7.1 6.9 6.9 7.2 7.1 7.3 7.5 7.4 7.6 7.0 6.0 8.1 7.9 7.1 7.8 8.1 7.9 8.4 7.7 7.2 8.7 7.2 7.5 7.7 7.1 6.7 6.8 6.5 6.5 6.5 6.5 6.5 6.5 6.5 6.7 6.5 6.5 6.5 6.5 7.1 7.5 7.7 7.7 7.6 7.7 7.8
6.4 6.8 6.9 6.9 7.1 7.0 6.9 6.9 6.9 6.7 6.9 7.2 7.2 7.4 7.6 7.8 7.6 7.5 7.7 8.9 8.4 7.7 6.8 7.3 7.6 7.0 8.6 7.6 7.4 8.9 7.9 8.3 8.1 6.6 6.8 6.5 6.5 6.8 6.5 6.5 6.5 6.6 6.6 6.5 6.5 6.5 6.8 7.2 7.5 7.7 7.8 7.4 7.3 7.3
6.4 6.9 6.6 6.9 7.1 6.8 6.7 6.7 6.7 6.6 6.6 6.7 6.7 7.4 7.3 7.3 7.9 7.7 8.1 8.3 8.2 7.4 6.8 7.2 7.9 7.7 7.8 8.5 7.7 8.1 8.5 8.1 7.6 6.9 6.6 6.5 6.7 6.6 6.6 6.5 6.5 6.8 6.5 6.5 6.5 6.8 6.8 6.9 7.7 7.8 7.7 7.6 6.8 6.2
6.0 6.6 6.2 6.6 6.9 6.8 6.6 6.7 6.0 6.4 7.0 7.2 7.0 7.3 7.2 7.3 7.1 7.7 8.1 7.2 6.6 7.1 7.1 6.5 8.3 8.0 7.7 7.7 7.8 8.3 8.4 8.2 7.8 7.2 6.8 7.1 6.4 6.8 6.5 6.5 6.6 7.2 7.5 7.5 6.8 7.6 7.5 7.7 7.9 8.0 7.2 7.7 6.7 6.4
5.8 6.2 6.2 6.3 6.3 6.6 6.6 6.8 6.5 7.1 7.1 7.2 7.2 7.1 7.1 7.1 7.5 7.7 7.5 7.3 7.2 7.4 7.3 6.7 6.7 8.1 7.9 8.3 8.1 8.2 8.4 7.9 7.6 7.2 6.9 7.0 6.9 6.7 6.5 6.5 6.6 7.2 7.5 7.7 7.9 7.7 7.2 7.6 7.3 6.8 6.5 6.3 5.4 5.5
6.4 6.5 6.7 6.6 6.2 6.7 6.6 6.4 7.0 7.1 6.8 7.1 7.1 7.1 7.3 7.3 7.3 7.7 7.3 6.9 6.9 6.5 6.9 6.5 6.5 7.1 7.6 7.2 7.1 8.3 7.5 7.7 7.6 7.2 7.3 6.7 6.9 6.8 6.5 6.6 7.0 7.4 7.6 7.6 7.7 7.0 6.6 6.1 5.9 6.6 5.7 5.6 6.1 6.1
6.7 6.9 6.5 6.3 6.4 6.9 7.0 6.2 6.6 6.5 6.4 6.2 6.3 6.7 7.5 7.3 8.1 7.4 6.8 7.1 6.4 6.5 7.0 6.8 6.5 6.5 6.5 6.9 7.4 7.6 7.8 6.5 7.7 6.5 6.6 6.8 6.5 6.5 6.5 6.7 6.9 7.3 7.3 7.4 6.9 6.1 6.1 6.3 6.3 5.9 6.2 6.4 7.6 7.8
5.8 6.2 6.4 6.4 6.6 6.9 6.7 6.8 6.4 6.3 5.9 5.2 7.1 8.4 7.5 7.2 6.6 7.2 6.4 6.8 6.4 6.4 6.7 6.7 7.2 6.5 6.9 7.0 6.9 6.9 7.1 6.5 6.5 6.5 7.2 6.5 6.5 6.9 5.4 6.4 7.2 7.4 6.5 5.8 6.4 6.0 4.0 3.9 5.1 7.0 6.9 7.4 7.9 7.7
5.2 6.1 6.6 6.3 6.4 6.1 6.6 6.9 6.5 5.7 6.9 8.1 7.6 7.5 7.4 6.6 7.1 7.7 6.9 6.8 6.9 6.6 7.1 7.1 6.9 6.6 7.2 6.6 6.5 7.0 6.5 6.5 6.5 6.5 6.5 6.5 6.5 6.6 6.0 6.1 6.6 6.4 5.9 5.2 5.2 5.2 5.6 5.5 5.9 5.4 5.6 7.3 7.9 7.7
5.6 6.7 6.7 6.6 6.2 6.3 6.7 7.0 7.0 7.4 7.4 7.2 6.8 7.0 7.0 7.5 7.3 6.6 6.5 6.7 6.5 6.5 6.9 7.1 7.0 7.4 6.9 6.6 6.8 6.6 6.5 6.5 6.5 6.6 6.5 6.5 6.5 7.2 7.5 7.4 6.2 6.0 5.7 5.7 5.6 5.9 5.5 5.0 4.6 4.3 5.0 5.6 5.9 6.1
5.3 5.6 6.6 6.7 6.4 6.4 7.0 7.3 6.9 6.6 6.5 6.9 6.4 5.9 7.4 6.9 6.5 6.5 6.5 6.5 6.5 6.8 7.1 7.1 6.6 7.3 7.0 6.8 6.6 6.5 6.5 6.5 6.7 6.5 6.5 6.5 6.9 7.4 7.2 6.8 6.0 5.7 6.0 6.1 5.1 4.7 4.8 4.1 3.7 4.1 4.2 4.4 4.4 5.0
4.7 5.8 7.1 7.0 6.9 6.5 6.6 6.6 6.6 6.3 7.4 6.4 6.5 6.5 6.5 6.5 6.5 6.5 6.5 6.5 7.0 6.6 7.2 7.3 6.9 6.8 6.9 6.6 6.5 6.5 6.5 6.5 6.5 6.5 6.5 6.5 7.0 7.5 7.7 7.3 7.6 6.9 6.2 5.7 4.9 4.7 4.4 4.5 4.3 4.5 3.6 3.0 2.8 2.8
5.4 7.0 7.4 7.1 6.8 6.6 5.9 5.8 6.2 5.8 6.8 6.3 6.2 6.5 6.5 7.0 6.6 6.5 5.6 6.1 6.6 6.6 7.3 7.1 6.9 6.9 6.5 6.5 6.5 6.5 6.5 6.5 6.5 6.5 6.5 6.9 7.1 6.7 7.1 7.1 6.9 6.4 5.7 5.1 4.9 5.1 4.7 4.2 4.3 4.7 3.3 3.1 3.9 4.0
5.3 6.9 7.1 7.1 6.3 6.4 5.5 5.1 5.6 5.6 4.6 5.3 5.6 6.6 7.1 6.8 6.7 6.8 6.4 7.0 6.8 7.3 7.4 6.8 6.5 6.5 6.5 6.5 6.5 6.5 6.5 6.5 6.5 6.5 6.7 7.2 6.7 6.3 5.8 5.4 5.1 4.8 4.8 4.7 4.6 3.8 3.5 3.5 3.6 3.7 4.0 3.3 3.2 3.2
6.5 7.2 6.2 6.7 6.5 5.3 4.8 5.2 5.3 3.3 4.3 4.9 6.7 6.6 7.3 6.9 6.9 7.2 7.7 7.6 7.1 7.3 6.5 6.6 6.5 6.5 6.5 6.5 6.5 6.5 6.5 6.5 6.7 6.8 6.4 6.8 5.7 5.4 4.7 4.2 3.9 3.6 3.8 3.9 3.7 3.4 3.0 2.9 3.8 3.6 2.8 2.2 1.8 2.6
5.7 5.4 5.7 4.8 4.4 4.7 3.9 4.2 4.0 4.4 6.5 6.7 6.7 7.2 7.5 7.8 7.4 7.6 7.9 8.1 7.6 7.4 7.0 6.6 6.9 6.5 6.5 6.5 6.5 6.5 6.6 4.7 4.0 4.3 6.1 5.0 5.0 4.5 4.1 4.2 3.5 3.4 3.4 3.0 2.3 2.1 2.4 2.5 3.1 2.7 2.1 1.8 2.7 3.0
5.0 5.3 4.5 5.1 5.6 4.9 4.8 4.4 4.1 6.6 6.8 6.5 5.6 5.4 5.8 6.6 7.2 7.4 7.6 8.1 7.8 7.4 6.8 6.9 6.5 6.5 6.5 6.6 6.6 6.1 5.5 5.5 6.8 5.5 5.6 4.9 4.9 4.5 3.9 3.1 2.5 2.1 2.1 2.3 2.9 3.2 2.9 2.4 2.3 1.9 1.9 2.2 2.7 2.9
5.7 5.4 5.4 5.7 5.6 5.0 4.8 5.0 3.5 5.1 6.7 6.7 5.3 5.8 5.8 6.7 6.3 6.0 7.0 7.1 7.1 7.3 6.8 6.5 6.5 6.8 6.9 7.0 6.0 5.9 6.3 5.9 5.6 5.8 5.2 5.0 4.2 2.9 2.5 2.9 3.5 2.7 2.5 1.9 2.1 2.6 3.2 3.3 2.6 2.3 2.2 2.3 2.3 2.6
6.3 5.9 5.7 5.1 3.9 5.0 5.7 4.8 4.8 5.0 5.7 6.5 5.6 5.3 6.5 5.1 5.3 6.7 6.7 7.3 7.1 7.0 6.7 7.5 7.4 6.3 6.5 6.9 6.3 5.4 5.3 5.1 5.8 6.9 7.4 6.3 4.1 3.1 3.0 2.5 1.9 2.7 3.3 3.8 4.2 4.4 3.2 4.0 3.6 2.9 2.8 3.1 3.0 3.2
5.4 5.4 4.3 4.4 5.3 4.5 4.9 4.6 5.6 4.7 4.3 6.1 5.4 4.8 6.8 6.8 6.9 7.1 5.6 7.0 7.0 7.3 7.3 7.1 7.0 6.6 6.2 5.9 6.1 5.2 5.0 4.9 4.6 3.9 3.6 3.7 3.3 2.2 2.1 2.1 1.5 2.2 2.8 3.5 3.9 4.0 4.1 3.5 2.8 2.7 2.8 3.1 3.4 3.4
5.6 5.8 4.9 4.8 6.1 5.9 6.2 4.5 6.1 5.9 6.5 6.8 6.1 6.7 6.7 6.7 6.0 4.8 6.9 7.1 6.3 4.0 3.9 4.2 3.4 2.7 3.0 3.0 3.0 2.6 2.8 3.2 4.4 4.0 3.5 3.8 4.1 3.0 2.7 2.3 2.1 2.6 2.6 3.1 2.9 3.1 2.7 2.6 2.7 2.6 3.0 3.1 3.2 3.2
6.1 5.5 6.5 6.9 6.9 6.7 5.5 6.4 6.2 6.9 7.0 6.7 6.5 6.5 6.5 6.8 5.8 6.9 6.5 6.8 4.3 3.0 2.0 1.8 3.0 3.4 3.5 2.4 2.2 3.4 4.2 3.8 4.2 4.1 3.4 3.8 3.5 3.6 3.0 3.0 3.2 2.7 3.4 3.1 2.7 2.5 2.4 2.4 2.6 2.8 2.8 2.4 2.4 2.3
6.6 6.7 6.6 6.6 6.8 6.7 6.5 6.5 6.6 6.6 6.5 6.5 6.5 6.5 6.5 5.8 6.5 6.5 6.5 6.0 3.9 2.6 3.4 3.7 3.2 2.8 2.2 2.1 2.7 3.4 2.2 2.3 3.1 3.6 3.6 3.0 4.3 2.9 2.5 2.4 2.8 2.9 2.3 1.6 1.8 1.9 2.0 1.7 1.6 1.8 2.1 2.1 2.0 1.2
6.5 6.2 6.6 6.6 6.7 6.6 6.5 6.5 6.5 6.5 6.5 6.5 6.5 6.8 6.3 6.5 6.5 6.5 6.5 5.2 4.5 3.6 4.1 3.6 3.3 2.7 2.4 1.4 1.5 2.1 3.0 1.7 1.2 2.3 3.5 2.3 2.6 3.5 2.9 2.7 2.6 2.6 1.5 1.8 2.5 2.2 1.9 1.6 1.4 0.9 1.3 1.3 2.2 2.1
6.5 6.5 6.9 6.2 7.0 6.4 6.8 7.0 7.0 6.6 6.5 6.5 6.5 6.5 6.5 6.5 6.5 6.5 4.4 2.9 2.9 2.7 2.0 1.9 1.6 2.1 2.5 2.6 1.8 1.3 0.6 -0.1 0.4 0.7 -0.3 0.6 1.6 2.5 3.1 3.1 3.0 2.5 0.5 0.7 1.0 1.5 2.1 2.1 1.9 1.7 1.8 1.8 1.5 1.3
6.8 6.6 6.5 6.6 6.3 5.9 6.5 6.5 6.5 6.5 6.5 7.0 6.9 6.5 6.5 6.5 6.5 4.6 2.7 2.4 1.3 1.0 0.8 0.8 0.3 0.3 1.0 1.6 1.8 1.2 0.1 -1.5 -2.5 -2.3 -1.1 -0.5 -1.4 -1.2 -1.2 -0.4 -0.9 0.3 -0.3 -0.0 0.7 0.7 1.0 1.3 1.5 1.6 1.4 1.0 1.1 1.8
6.9 6.4 5.5 6.4 5.8 6.1 6.4 6.5 6.5 5.7 5.9 5.6 6.5 6.5 6.2 3.3 2.9 2.0 1.6 -0.1 -1.1 -1.0 -0.1 1.4 2.6 0.0 -0.1 -0.5 -1.1 -1.0 -0.0 -0.7 -0.3 1.0 1.4 2.8 2.2 1.0 -2.0 -2.0 -2.0 -1.1 -0.8 -0.3 1.2 1.3 -0.7 -0.0 0.6 1.0 1.1 1.5 1.8 2.2
6.8 6.4 6.1 5.9 6.5 6.5 5.3 3.5 4.0 3.3 3.0 4.1 3.3 3.4 2.8 1.7 1.0 0.7 -0.2 -0.1 -0.2 1.7 3.4 3.8 3.6 2.3 2.6 2.4 1.9 0.7 -1.4 -0.5 0.4 2.3 3.8 4.0 3.6 -0.7 -2.2 -2.3 -2.1 -2.0 -1.8 -1.1 -0.5 -0.2 1.2 1.4 1.0 1.0 1.1 2.4 2.2 2.4
6.1 5.4 6.0 6.5 6.5 4.5 3.0 -1.4 -0.6 1.9 1.3 1.8 0.9 3.3 5.3 3.9 0.7 0.3 1.1 1.7 1.7 2.1 2.7 3.0 2.2 0.8 0.8 1.1 0.9 1.1 1.2 -0.7 -1.4 -0.4 0.7 -0.3 -0.6 -0.4 -0.4 -0.6 -0.6 -0.9 -1.1 -0.8 -0.2 0.2 0.8 1.3 1.6 1.7 2.0 2.0 1.6 4.1
5.3 6.2 6.2 6.5 6.0 0.4 -2.0 1.0 2.9 3.5 2.6 1.6 3.4 1.2 1.1 2.4 3.6 3.7 0.1 -3.1 -1.4 -0.3 0.9 1.5 0.5 0.6 -1.0 -1.1 -1.6 -1.1 0.3 -1.8 -2.4 -2.5 -2.4 -0.5 -0.8 -0.8 -0.8 -1.1 -1.4 -1.0 -0.5 -0.2 0.3 0.8 1.2 1.4 2.1 2.4 2.7 2.1 1.9 1.8
4.6 5.9 4.5 4.7 5.1 4.9 2.4 2.7 4.6 5.2 4.0 4.5 3.2 2.1 3.0 3.9 4.7 2.4 -4.9 -7.3 -4.6 -3.5 -3.6 -3.5 -3.7 -3.7 -4.3 -5.0 -3.2 -2.2 -2.0 -3.6 -3.5 -0.8 -0.3 0.0 0.1 -0.3 -1.0 -0.8 -0.2 0.3 0.6 1.2 2.0 2.8 3.1 3.4 3.0 2.2 2.1 1.7 1.3 1.1
Wind_Speed
13 11 9 7 7 7 7 6 6 7 10 12 8 10 8 11 8 5 2 1 2 2 8 5 4 6 6 5 4 5 3 4 2 5 4 3 5 6 4 5 6 9 6 6 7 6 7 8 6 4 6 5 4 2
12 11 10 9 9 9 9 7 6 6 9 10 9 7 12 11 10 2 2 2 1 3 4 7 11 13 13 11 6 3 4 4 4 4 6 3 5 3 8 4 9 6 7 3 7 4 4 6 5 4 2 1 1 1
10 10 11 11 11 10 9 8 6 5 7 10 7 9 13 10 9 9 2 2 2 3 6 4 1 4 7 11 13 4 2 6 4 5 4 3 6 4 6 9 7 8 8 4 4 8 9 6 7 1 3 4 3 1
9 9 10 10 12 11 9 7 5 5 5 8 6 8 11 12 14 7 3 2 3 2 3 3 1 5 3 5 10 14 12 4 5 3 3 4 4 5 8 6 8 5 10 10 9 9 1 8 9 8 6 1 2 3
8 10 8 9 11 11 9 6 5 3 3 4 5 10 12 14 12 8 4 2 2 1 3 6 13 3 1 7 8 9 9 9 5 2 3 3 6 4 3 3 8 7 8 9 5 8 9 2 10 7 4 3 2 5
8 10 7 9 12 10 6 7 6 4 4 6 7 9 12 13 9 3 1 2 2 2 2 4 4 3 0 2 6 8 7 5 5 4 4 4 4 6 6 11 13 10 14 12 9 3 1 7 4 1 3 1 5 8
8 8 8 9 10 9 7 4 6 5 5 9 12 12 11 12 2 2 2 2 5 2 1 4 3 1 1 2 1 3 6 3 3 3 6 6 4 6 5 10 5 9 9 7 4 5 4 4 2 2 3 6 8 9
8 8 9 7 4 3 5 5 4 5 7 11 12 12 7 4 2 1 2 4 4 1 1 3 4 3 5 3 3 3 4 4 5 4 5 8 2 2 5 12 5 5 6 7 6 2 4 2 2 4 4 6 8 9
5 6 3 5 5 7 8 4 4 6 9 11 11 4 2 1 0 1 1 1 5 1 2 2 3 3 4 2 1 4 4 4 4 6 6 5 5 5 6 7 7 9 8 7 6 2 0 3 3 5 6 7 9 8
9 10 5 7 7 8 4 2 1 6 9 8 2 1 1 1 6 7 2 1 1 1 2 3 2 3 2 3 3 2 4 3 4 7 5 5 3 8 2 5 2 5 5 6 4 2 1 1 2 5 7 8 9 10
11 11 9 9 10 5 3 1 2 6 3 3 4 2 3 6 1 1 1 2 2 2 3 3 3 4 2 3 2 4 2 2 3 3 3 3 3 4 7 6 1 2 3 2 2 2 1 3 5 7 8 8 9 9
11 9 12 11 10 7 4 2 2 2 1 2 1 2 2 1 1 2 1 2 2 2 2 3 6 6 3 3 4 3 3 2 2 1 2 2 2 4 5 4 2 2 2 2 1 0 1 3 4 5 6 7 8 9
11 10 14 11 9 8 6 3 3 4 4 2 1 2 2 0 1 1 3 0 3 3 1 5 6 4 3 2 3 2 3 2 2 2 2 1 3 3 4 4 3 2 2 3 3 1 2 3 2 3 5 5 6 7
12 14 16 13 10 8 8 5 3 1 0 2 2 2 2 1 2 2 2 2 2 3 6 7 5 3 3 3 2 3 1 3 2 2 2 2 5 6 4 3 3 4 4 4 4 3 3 4 3 4 4 4 4 5
11 13 13 11 12 10 10 7 3 2 1 1 2 1 2 3 3 3 1 3 2 3 4 5 4 3 3 4 2 2 2 3 3 2 3 1 5 5 5 4 4 3 3 4 3 3 3 4 5 4 6 7 7 5
13 7 7 9 13 14 12 6 2 1 1 1 2 2 3 1 2 2 3 3 1 3 3 2 3 3 4 3 3 3 2 2 2 2 2 3 6 5 5 4 3 3 3 3 2 3 3 4 5 5 4 6 6 6
13 2 9 12 15 14 5 1 1 3 1 2 2 3 4 2 4 2 3 3 1 3 2 2 4 2 5 3 3 2 2 3 4 4 2 1 4 4 4 4 3 2 2 2 1 2 3 4 3 4 6 7 6 5
1 5 14 23 11 5 2 2 1 1 4 3 3 2 2 4 4 3 2 2 2 2 2 2 3 3 4 4 2 1 1 1 1 3 1 2 4 4 3 4 3 2 1 1 1 1 1 3 3 3 4 5 5 4
5 10 24 17 5 3 2 1 1 3 4 2 3 3 3 3 5 6 4 2 2 1 4 3 5 4 4 4 3 2 2 1 2 1 1 1 3 5 4 2 2 1 1 1 1 1 1 2 2 3 3 4 4 4
8 22 19 14 3 2 2 1 1 2 3 2 2 2 2 3 2 2 3 3 3 2 4 5 6 4 4 5 1 2 2 3 1 1 2 4 4 4 5 4 3 3 2 2 2 3 2 2 1 1 2 3 4 4
7 9 11 5 2 1 1 3 3 2 2 2 1 3 2 2 3 2 2 3 5 4 5 7 9 8 7 6 5 3 4 3 5 4 5 2 5 5 4 4 4 3 3 3 2 2 2 2 1 2 3 3 3 3
3 6 2 2 2 2 2 1 0 1 2 1 2 1 3 3 2 2 0 4 5 5 5 6 7 6 6 7 7 4 6 5 4 4 4 3 3 4 5 5 5 4 3 3 3 2 2 1 2 2 3 3 4 3
7 3 2 1 2 4 1 1 2 2 3 1 1 3 3 3 2 0 3 4 5 5 5 5 7 4 7 8 7 7 6 6 6 5 5 5 3 2 2 4 5 5 4 4 3 3 2 2 3 3 3 3 3 4
4 4 5 6 6 2 2 3 1 2 1 2 3 4 3 2 1 3 5 4 4 2 3 6 5 5 4 5 5 5 3 4 4 3 3 4 4 4 4 4 4 4 2 2 3 3 2 3 3 3 3 3 3 4
4 6 4 5 3 4 5 4 3 3 4 6 4 4 1 0 2 4 4 4 2 3 2 2 3 4 4 4 4 4 1 3 4 5 4 5 3 2 2 2 3 4 4 4 4 4 3 3 3 3 3 4 4 5
6 7 7 9 4 5 6 5 6 6 3 4 6 0 1 1 3 6 3 2 2 1 1 2 3 3 3 3 3 3 2 1 2 4 2 5 5 5 5 4 4 4 6 6 4 5 4 4 4 4 4 5 8 6
6 7 3 1 3 3 2 1 1 2 4 5 2 4 3 4 6 4 2 3 3 2 3 2 3 4 4 4 3 3 2 2 4 2 3 3 3 5 4 5 6 2 4 4 4 5 5 5 5 5 5 4 4 5
4 6 8 6 3 2 3 4 5 6 4 4 4 6 4 6 4 2 4 2 3 1 3 4 5 5 5 5 4 3 3 2 2 3 4 5 4 3 3 2 1 4 3 3 4 3 3 3 4 4 5 5 5 4
4 4 5 4 2 4 6 7 5 4 3 5 6 5 5 4 2 3 3 2 1 2 5 6 6 5 5 4 4 4 4 4 4 6 8 7 2 4 5 3 3 3 2 3 6 6 5 4 5 5 7 6 6 5
5 5 4 5 6 7 6 7 4 2 2 2 2 3 3 3 4 3 2 3 4 8 12 10 9 4 7 5 6 6 6 6 7 8 8 8 4 2 3 3 3 3 3 3 2 2 5 4 5 3 4 3 3 4
6 4 3 5 5 3 0 2 1 1 1 2 2 4 7 5 4 3 7 11 12 11 9 10 8 6 6 6 6 6 6 4 8 10 7 2 2 2 3 3 2 3 3 3 3 4 4 3 4 5 6 7 7 8
4 6 4 5 4 1 1 2 1 3 2 2 3 3 3 2 4 3 1 2 2 5 9 8 6 5 2 3 2 2 4 1 0 2 5 4 3 3 2 2 2 3 3 4 4 4 5 6 5 6 7 8 8 7
2 1 1 3 2 3 3 3 2 3 2 3 4 3 3 3 6 3 1 1 3 3 3 3 3 3 3 3 2 0 1 2 2 3 4 4 5 5 4 3 4 5 5 5 5 5 7 8 7 8 7 7 7 7
Wind_Direction
191 201 212 228 240 255 274 302 325 332 335 338 334 2 348 352 348 341 356 330 351 290 287 261 285 294 309 277 285 24 249 203 201 236 231 220 260 208 239 212 182 189 197 209 223 229 259 130 131 226 84 109 101 125
201 212 221 230 244 253 267 270 287 311 335 329 323 331 345 330 338 354 300 157 212 249 281 293 268 278 272 275 305 277 323 316 350 252 229 215 224 239 244 233 198 207 206 228 209 226 122 190 282 83 20 310 142 164
210 228 231 234 251 262 282 282 260 274 317 323 337 334 338 344 332 341 196 287 244 259 282 253 284 251 257 246 240 243 259 354 31 0 315 302 246 222 220 242 200 234 220 223 215 249 228 194 193 133 105 104 110 136
219 236 242 246 254 264 276 277 259 263 308 327 318 321 328 325 325 327 263 259 252 322 289 309 172 281 289 228 209 224 262 254 4 3 297 251 234 213 251 267 230 208 169 213 237 261 273 235 225 217 172 175 271 274
221 241 243 264 265 265 288 279 252 261 306 309 312 321 325 323 325 314 309 340 308 265 307 300 302 279 256 220 219 229 240 255 253 277 251 265 268 235 233 265 237 192 207 209 231 228 222 315 187 152 208 248 280 298
222 244 247 268 272 280 258 263 223 230 271 310 305 315 330 328 317 284 200 74 136 171 298 301 350 283 298 193 220 232 226 234 226 211 235 248 242 305 232 235 235 219 229 225 253 185 137 118 141 209 270 265 308 299
212 238 258 262 274 282 299 160 190 235 278 307 307 316 331 324 250 320 10 60 127 68 280 292 289 204 191 176 224 224 216 217 228 250 234 252 268 355 270 233 193 223 213 199 180 153 200 184 129 128 290 298 303 285
212 237 246 254 264 248 174 184 248 293 312 315 325 323 326 64 120 191 27 120 120 92 269 289 283 272 157 215 205 176 191 209 222 240 247 241 233 185 270 234 223 163 173 174 167 101 51 56 303 304 315 300 292 280
213 243 234 199 230 241 201 196 299 319 330 332 322 323 128 354 350 63 175 327 143 321 304 256 297 328 176 232 236 198 196 220 235 224 231 224 204 210 279 302 195 180 189 181 141 142 311 280 319 313 312 297 281 280
224 239 220 198 213 187 205 210 60 341 336 339 343 307 115 41 321 292 147 208 158 184 231 260 273 270 287 221 211 230 203 230 219 216 202 214 260 231 168 321 9 126 130 135 141 179 150 242 268 328 314 303 289 285
220 231 185 195 203 198 147 145 40 3 350 0 2 9 339 319 280 253 277 247 166 235 198 245 256 284 252 242 256 212 228 235 252 163 225 195 233 165 147 143 130 109 100 90 41 42 353 320 320 322 313 307 304 293
206 202 179 193 205 195 168 139 41 39 68 15 313 291 283 297 251 287 342 301 251 327 315 302 314 293 275 237 238 195 251 228 288 64 251 245 88 109 145 142 131 93 108 130 141 127 1 339 340 313 306 318 325 318
195 194 186 186 194 209 168 121 72 91 127 133 81 0 304 259 303 53 351 266 315 331 347 320 322 292 294 259 270 277 270 299 289 254 274 27 130 148 153 152 116 87 113 102 86 36 358 354 338 321 323 335 339 344
189 193 193 182 183 188 153 132 108 91 270 61 38 347 282 241 244 212 255 282 334 288 314 319 301 285 302 277 282 271 323 290 282 281 275 31 155 148 142 138 148 111 98 94 71 45 22 350 329 337 329 343 347 351
193 205 205 184 184 170 149 139 116 48 86 87 122 256 233 317 289 295 324 299 250 286 304 301 269 249 266 276 244 289 246 261 251 283 11 99 148 143 137 134 120 104 84 74 52 48 31 8 1 349 10 3 357 349
193 198 216 193 178 160 147 134 76 112 74 129 224 232 191 270 260 269 257 268 253 294 285 238 274 276 262 290 268 248 272 267 351 350 356 149 155 154 147 140 111 82 59 50 42 36 23 19 1 353 14 14 357 349
162 199 179 185 156 129 104 60 60 50 158 178 244 252 272 255 244 276 294 305 8 300 311 312 280 313 304 262 260 240 269 347 333 327 317 167 161 151 134 125 123 104 80 47 32 45 31 4 359 20 11 356 345 345
118 155 148 136 127 97 48 25 77 225 245 211 220 134 222 269 272 257 248 275 283 285 267 272 308 262 264 271 268 353 327 304 263 321 311 152 148 148 161 157 152 157 169 158 39 346 2 1 5 12 348 344 331 354
152 154 143 140 127 104 124 120 334 273 245 261 263 227 238 264 273 277 263 229 218 304 298 261 248 229 240 245 282 289 272 274 311 66 292 221 193 182 168 134 125 172 195 227 291 341 349 351 341 342 337 338 339 345
143 153 152 134 104 121 169 161 9 272 261 6 273 249 238 253 322 281 272 228 206 199 222 230 229 227 229 252 213 297 316 299 219 279 269 229 210 184 194 190 200 167 190 206 243 259 271 269 216 320 323 328 327 332
90 130 122 94 67 8 270 172 217 231 304 276 339 291 287 285 244 218 237 210 220 218 235 238 246 255 258 272 264 257 258 235 255 260 281 212 187 200 192 200 186 194 207 208 236 241 245 275 317 309 306 306 309 308
129 136 96 55 177 146 267 156 277 117 231 290 270 267 263 268 247 177 161 213 236 232 220 256 260 271 276 267 271 238 267 251 232 243 237 166 171 199 210 198 189 205 210 213 213 234 249 262 269 272 280 293 295 308
107 92 96 157 212 198 153 184 203 188 247 237 259 262 231 226 189 167 249 227 252 242 238 261 273 266 264 286 280 266 234 238 245 233 225 215 227 193 182 186 194 193 198 210 198 206 218 236 262 265 271 275 289 301
85 168 174 195 201 202 136 185 197 226 243 235 236 260 230 219 135 229 254 248 246 257 238 251 261 282 258 237 262 267 252 215 248 249 217 202 208 215 205 202 196 208 209 119 178 204 215 234 244 252 267 274 281 289
181 190 195 201 175 158 197 186 188 200 246 204 211 254 191 314 246 243 242 248 225 246 275 299 267 255 267 286 288 284 188 230 246 248 209 198 193 128 192 210 214 213 172 193 217 218 223 212 220 231 244 259 275 288
210 194 198 180 182 189 190 184 202 215 222 199 230 181 120 245 255 247 227 234 224 172 279 307 311 299 262 224 281 298 330 229 241 253 239 189 199 200 202 196 216 239 197 210 206 204 207 204 220 222 244 260 269 279
207 201 188 62 156 124 165 151 159 201 208 221 203 173 180 221 240 247 265 216 221 198 197 199 218 237 255 281 264 260 229 214 225 290 330 305 245 230 217 207 219 233 147 175 190 200 204 201 211 218 237 249 249 253
207 184 186 168 182 202 174 170 185 215 224 182 161 199 219 215 244 222 221 211 204 226 250 243 225 229 239 247 252 261 242 212 265 274 272 253 223 230 225 222 166 166 147 165 177 175 193 207 227 240 245 252 259 251
195 149 121 147 153 200 215 203 214 214 186 173 192 214 231 219 249 243 239 211 172 254 265 260 252 209 233 235 237 233 227 197 193 222 236 247 232 229 184 177 176 182 175 193 221 208 201 211 226 238 242 245 249 246
170 171 159 170 183 214 220 189 220 173 193 218 289 304 264 250 243 222 247 240 245 258 266 269 273 230 252 246 258 233 207 208 214 224 240 247 242 102 142 162 176 176 169 173 191 241 268 275 288 293 286 260 238 247
149 181 201 192 226 236 112 11 333 277 242 234 217 242 263 300 306 236 239 251 254 266 273 269 261 236 238 241 237 254 263 204 222 230 238 144 133 153 161 150 138 147 167 187 203 217 226 247 250 255 252 248 251 261
182 194 180 208 243 145 215 205 218 231 203 232 237 198 283 271 267 267 248 26 272 256 259 267 265 282 200 262 309 301 282 27 319 223 204 202 176 175 174 180 170 178 193 207 217 228 229 233 246 246 250 254 256 254
92 115 39 297 268 240 173 191 211 268 234 249 241 208 213 230 249 282 96 203 247 279 299 316 325 323 329 306 320 10 119 71 121 118 128 154 173 185 188 197 201 207 211 222 229 228 230 236 245 245 244 248 256 259